TimeEST,TemperatureF,Dew PointF,Humidity,Sea Level PressureIn,VisibilityMPH,Wind Direction,Wind SpeedMPH,Gust SpeedMPH,PrecipitationIn,Events,Conditions,WindDirDegrees,DateUTC
12:56 AM,68.0,68.0,100,30.03,6.0,Calm,Calm,-,N/A,,Mostly Cloudy,0,2013-11-18 05:56:00
1:56 AM,66.9,66.9,100,30.01,10.0,SW,4.6,-,N/A,,Mostly Cloudy,230,2013-11-18 06:56:00
2:56 AM,69.1,68.0,96,29.99,10.0,SW,8.1,-,N/A,,Mostly Cloudy,220,2013-11-18 07:56:00
3:56 AM,68.0,66.9,96,29.98,8.0,WNW,3.5,-,N/A,,Mostly Cloudy,290,2013-11-18 08:56:00
4:56 AM,68.0,68.0,100,29.98,8.0,SW,4.6,-,N/A,,Mostly Cloudy,220,2013-11-18 09:56:00
5:56 AM,69.1,68.0,96,29.97,8.0,SSW,5.8,-,N/A,,Mostly Cloudy,210,2013-11-18 10:56:00
6:38 AM,69.1,69.1,100,29.97,8.0,SW,4.6,-,N/A,,Overcast,220,2013-11-18 11:38:00
6:56 AM,69.1,69.1,100,29.97,8.0,SW,3.5,-,N/A,,Overcast,220,2013-11-18 11:56:00
7:22 AM,68.0,68.0,100,29.96,5.0,SSW,4.6,-,N/A,,Mostly Cloudy,210,2013-11-18 12:22:00
7:46 AM,69.1,69.1,100,29.97,6.0,SSW,4.6,-,N/A,,Mostly Cloudy,210,2013-11-18 12:46:00
7:56 AM,70.0,70.0,100,29.98,6.0,SW,6.9,-,N/A,,Mostly Cloudy,220,2013-11-18 12:56:00
8:56 AM,71.1,71.1,100,29.99,10.0,West,8.1,-,N/A,,Overcast,280,2013-11-18 13:56:00
9:56 AM,73.9,72.0,93,29.99,10.0,West,6.9,-,N/A,,Overcast,270,2013-11-18 14:56:00
10:18 AM,75.9,72.0,87,29.99,10.0,West,5.8,-,N/A,,Overcast,260,2013-11-18 15:18:00
10:56 AM,77.0,72.0,84,30.00,10.0,West,9.2,-,N/A,,Overcast,270,2013-11-18 15:56:00
11:08 AM,77.0,72.0,84,29.99,10.0,West,8.1,-,N/A,,Overcast,260,2013-11-18 16:08:00
11:46 AM,77.0,72.0,84,29.98,10.0,West,6.9,-,N/A,,Overcast,260,2013-11-18 16:46:00
11:56 AM,78.1,72.0,81,29.98,10.0,West,6.9,-,N/A,,Overcast,260,2013-11-18 16:56:00
12:56 PM,78.1,72.0,81,29.95,10.0,West,9.2,-,N/A,,Overcast,280,2013-11-18 17:56:00
1:34 PM,73.9,72.0,93,29.95,0.8,WSW,12.7,19.6,0.00,Rain,Light Rain,240,2013-11-18 18:34:00
1:38 PM,73.9,72.0,93,29.95,2.5,WSW,9.2,19.6,0.04,Rain,Light Rain,250,2013-11-18 18:38:00
1:56 PM,73.0,72.0,96,29.94,2.5,West,11.5,-,0.06,Rain,Heavy Rain,270,2013-11-18 18:56:00
2:04 PM,73.0,72.0,96,29.94,7.0,West,9.2,-,0.01,Rain,Light Rain,280,2013-11-18 19:04:00
2:56 PM,73.0,72.0,96,29.93,10.0,West,5.8,-,0.03,Rain,Light Rain,270,2013-11-18 19:56:00
3:56 PM,72.0,72.0,100,29.94,6.0,West,9.2,-,0.07,Rain,Light Rain,260,2013-11-18 20:56:00
4:13 PM,72.0,71.1,97,29.94,5.0,West,8.1,-,0.02,Rain,Rain,260,2013-11-18 21:13:00
4:56 PM,71.1,70.0,96,29.93,5.0,SW,4.6,-,0.16,Rain,Rain,230,2013-11-18 21:56:00
5:56 PM,70.0,69.1,97,29.90,10.0,WSW,3.5,-,0.01,,Overcast,240,2013-11-18 22:56:00
6:48 PM,71.1,70.0,96,29.90,10.0,SW,5.8,-,N/A,,Overcast,220,2013-11-18 23:48:00
6:56 PM,71.1,70.0,96,29.90,10.0,SW,5.8,-,N/A,,Overcast,220,2013-11-18 23:56:00
7:56 PM,71.1,71.1,100,29.91,10.0,WSW,8.1,-,N/A,,Overcast,250,2013-11-19 00:56:00
8:56 PM,71.1,71.1,100,29.91,10.0,WSW,5.8,-,N/A,,Overcast,250,2013-11-19 01:56:00
9:56 PM,71.1,71.1,100,29.93,10.0,West,6.9,-,N/A,,Mostly Cloudy,260,2013-11-19 02:56:00
10:41 PM,71.1,70.0,96,29.92,10.0,West,4.6,-,N/A,,Overcast,270,2013-11-19 03:41:00
10:56 PM,71.1,70.0,96,29.93,10.0,West,4.6,-,N/A,,Overcast,280,2013-11-19 03:56:00
11:56 PM,71.1,70.0,96,29.93,9.0,West,4.6,-,N/A,,Overcast,270,2013-11-19 04:56:00